STARLINK-33534, 63499

Orbit data source: Space-Track

STARLINK-33534, 63499 is a payload satellite owned by SpaceX/Seattle (US) in LEO that was launched on Mon, 07 Apr 2025 UTC via an FALCON 9 launch vehicle from the Air Force Western Test Range (AFWTR). Payload-class satellites include a variety of spacecraft equipped with specific instruments for various scientific and technological missions. These include communications satellites like Starlink; space stations such as the ISS; scientific satellites like the Hubble; Earth observation satellites from companies like Planet Labs, Umbra, and HawkEye 360; GPS; miniature CubeSats for education and research; and military/defense satellites.

Loading next visibility...
Identifier
63499, 2025-071G
Orbit
LEO
Last TLE update
23 hours ago
Origin
Manufacturer
SpaceX/Seattle
Mission
Operational Commercial Communications
Bus & Motor
STARLINK V2MO, Unknown motor
Mass
575 kg wet, ~530 kg dry
Launch date (UTC)
2025-04-07 (1 month ago)
Launch vehicle
FALCON 9
Launch site
Air Force Western Test Range (AFWTR)
Object type
Payload
Rocket body
Debris
Shape & HBR
Box + 1 Pan, 29 m
Radar Cross Section
41.120 m², Large (>1 m²)

Expand to show TLE details & history

TLE from 23 hours ago
0 STARLINK-33534
1 63499U 25071G   25128.45247048 -.00038260  00000-0 -69062-3 0  9995
2 63499  53.1614 122.1968 0001847  34.1243 325.9885 15.49001680  5952
Epoch: 2025-05-08T10:51Z
Definitive object data (Epoch: 2025-05-08T10:51:33.449Z)
Latitude
0.00002°
Longitude
92.78469°
Altitude
419.512 km
Speed
7.661 km/s
True Right ascension
08h 08m 47s
True Declination
0° 00' 00"
Sunlit
Object was in daylight at TLE epoch
Visualization TLE readout
Latitude
-52.70625°
Longitude
-13.75611°
Altitude
439.045 km
Speed
7.648 km/s
Apparent Right ascension
03h 39m 57s
Apparent Declination
-52° 13' 51"
Sunlit
Object is in daylight
Visualization observer readout
Local Sidereal Time
17:49:28
Azimuth
129.914° SE
Elevation
-64.683°
Doppler factor
1
Orbital elements
Apogee altitude
421.159 km
Perigee altitude
418.648 km
Semi-major axis
6,798.04 km
Eccentricity
0.0001847
Inclination
53.1614°
RAAN
122.1968°
Arg. of periapsis
34.1243°
True anomaly
325.97666°
Mean anomaly
325.9885°
Eccentric anomaly
325.98258°
Mean motion
3.87229 °/min
BSTAR
-0.00069062
Orbital period
92.97 mins
Loading maneuver chart data...
Loading SW <> Apogee altitude chart data...
Loading historical data...
Loading historical data...
Loading historical data...
Loading historical data...
Loading historical data...
Loading historical data...
Loading historical data...

STARLINK-33534 Visibility forecast

Observer location: undefined°, undefined°

Span
Click to sort rows by Start time (UTC) header in descending order
Start Az.
Max El. time (UTC)
Max El. Az.
Max El.
End time (UTC)
End Az.
5 mins2025-05-10 01:45:06.738Z217.538° SW2025-05-10 01:48:06.738Z89.175° E39.542°2025-05-10 01:50:06.738Z57.41° ENE
4 mins2025-05-10 08:16:06.738Z332.874° NNW2025-05-10 08:18:06.738Z61.739° ENE35.327°2025-05-10 08:20:06.738Z107.408° ESE
|